Date String (YYYY-MM-DD hh:mm:ss) UTC,Instrument flags,absolute air pressure of the measurement (hPa),sample flow rate (lpm),inlet stack bypass flow (lpm),air temperature of the measurement (°C),ambient temperature measured by the external sensor (°C),aerosol sample conditioner tube jacket temperature (°C),OPC LED temperature (°C),internal box temperature (°C),relative humidity of the measurement (%),span deviation,mass concentration of particles derived from Lorenz-Mie calculation of OPC scattering (μg/m³),mass concentration of particles derived from Lorenz-Mie calculation of OPC scattering (μg/m³),mass concentration of particles derived from Lorenz-Mie calculation of OPC scattering (μg/m³)
DateTimeUTC,F1_M11,P_M11,Q1_M11,Q2_M11,T1_M11,T2_M11,T3_M11,T4_M11,T5_M11,U1_M11,ZSPAN_M11,X2_M11,X0_M11,X1_M11
2023-10-22 21:00:00,SystemResetWarning,0824.0,5.00,000.00,028.3,024.5,000.0,036.8,029.7,16.8,0000.0,0004.71,0013.63,0003.34
2023-10-22 21:01:00,SystemResetWarning,0824.0,4.98,000.00,028.3,025.0,000.0,036.8,029.8,16.9,0000.0,0004.77,0013.46,0003.36
2023-10-22 21:02:00,SystemResetWarning,0824.0,5.00,000.00,028.3,025.4,000.0,036.8,029.8,16.9,0000.0,0004.77,0012.83,0003.38
2023-10-22 21:03:00,SystemResetWarning,0824.0,5.01,000.00,028.3,025.8,000.0,036.8,029.9,16.8,0000.0,0004.78,0012.95,0003.41
2023-10-22 21:04:00,SystemResetWarning,0824.0,5.01,000.00,028.3,026.2,000.0,036.8,030.0,16.9,0000.0,0004.83,0014.33,0003.42
2023-10-22 21:05:00,SystemResetWarning,0824.0,4.99,000.00,028.3,026.5,000.0,036.8,030.0,16.8,0000.0,0004.91,0015.86,0003.44
2023-10-22 21:06:00,SystemResetWarning,0824.0,4.99,000.00,028.4,026.8,000.0,036.8,030.1,16.9,0000.0,0004.93,0017.02,0003.46
2023-10-22 21:07:00,SystemResetWarning,0824.0,5.00,000.00,028.4,027.0,000.0,036.8,030.2,16.9,0000.0,0004.97,0017.35,0003.49
2023-10-22 21:08:00,SystemResetWarning,0824.1,5.01,000.00,028.5,027.2,000.0,036.8,030.2,16.8,0000.0,0004.98,0017.60,0003.52
2023-10-22 21:09:00,SystemResetWarning,0824.1,5.01,000.00,028.5,027.4,000.0,036.8,030.3,16.6,0000.0,0004.98,0017.93,0003.53
2023-10-22 21:10:00,SystemResetWarning,0824.2,5.00,000.00,028.6,027.5,000.0,036.9,030.4,16.5,0000.0,0005.02,0018.18,0003.55
2023-10-22 21:11:00,SystemResetWarning,0824.1,4.98,000.00,028.6,027.4,000.0,036.9,030.4,16.5,0000.0,0005.10,0019.09,0003.56
2023-10-22 21:12:00,SystemResetWarning,0824.0,5.00,000.00,028.6,025.7,000.0,036.9,030.2,16.7,0000.0,0005.08,0018.70,0003.57
2023-10-22 21:13:00,SystemResetWarning,0824.0,5.00,000.00,028.4,024.3,000.0,036.8,030.0,16.8,0000.0,0005.13,0018.91,0003.57
2023-10-22 21:14:00,SystemResetWarning,0824.0,5.01,000.00,028.4,024.3,000.0,036.7,029.9,16.8,0000.0,0005.20,0019.29,0003.57
2023-10-22 21:15:00,SystemResetWarning,0824.0,5.02,000.00,028.3,024.7,000.0,036.7,029.8,16.9,0000.0,0005.17,0018.45,0003.57
2023-10-22 21:16:00,SystemResetWarning,0824.0,4.99,000.00,028.2,025.1,000.0,036.7,029.8,16.9,0000.0,0005.14,0017.09,0003.56
2023-10-22 21:17:00,SystemResetWarning,0824.0,5.00,000.00,028.2,025.5,000.0,036.7,029.8,16.9,0000.0,0005.12,0016.71,0003.56
2023-10-22 21:18:00,SystemResetWarning,0824.0,5.00,000.00,028.2,025.9,000.0,036.8,029.9,17.0,0000.0,0005.10,0016.78,0003.54
2023-10-22 21:19:00,SystemResetWarning,0824.0,5.00,000.00,028.3,026.3,000.0,036.8,030.0,16.9,0000.0,0005.17,0017.26,0003.53
2023-10-22 21:20:00,SystemResetWarning,0824.0,5.00,000.00,028.3,026.6,000.0,036.8,030.0,16.9,0000.0,0005.18,0016.97,0003.51
2023-10-22 21:21:00,SystemResetWarning,0824.0,4.99,000.00,028.4,026.9,000.0,036.8,030.1,16.9,0000.0,0005.22,0017.39,0003.51
2023-10-22 21:22:00,SystemResetWarning,0824.0,4.99,000.00,028.4,027.1,000.0,036.8,030.2,17.0,0000.0,0005.23,0018.19,0003.51
2023-10-22 21:23:00,SystemResetWarning,0823.9,5.00,000.00,028.5,027.3,000.0,036.8,030.3,17.1,0000.0,0005.27,0018.18,0003.51
2023-10-22 21:24:00,SystemResetWarning,0824.0,5.00,000.00,028.5,027.5,000.0,036.8,030.3,16.8,0000.0,0005.33,0019.08,0003.50
2023-10-22 21:25:00,SystemResetWarning,0824.0,4.99,000.00,028.6,027.1,000.0,036.8,030.4,16.8,0000.0,0005.28,0018.90,0003.49
2023-10-22 21:26:00,SystemResetWarning,0824.0,5.00,000.00,028.5,025.2,000.0,036.8,030.1,17.0,0000.0,0005.29,0019.76,0003.48
2023-10-22 21:27:00,SystemResetWarning,0824.0,5.00,000.00,028.4,024.1,000.0,036.7,029.9,16.9,0000.0,0005.33,0020.23,0003.47
2023-10-22 21:28:00,SystemResetWarning,0824.0,5.01,000.00,028.3,024.3,000.0,036.7,029.8,16.9,0000.0,0005.39,0019.67,0003.47
2023-10-22 21:29:00,SystemResetWarning,0823.9,5.00,000.00,028.2,024.6,000.0,036.7,029.7,17.0,0000.0,0005.43,0018.90,0003.47
2023-10-22 21:30:00,SystemResetWarning,0824.0,4.99,000.00,028.2,025.1,000.0,036.7,029.7,17.0,0000.0,0005.35,0018.35,0003.46
2023-10-22 21:31:00,SystemResetWarning,0823.9,5.00,000.00,028.2,025.5,000.0,036.7,029.8,16.9,0000.0,0005.31,0017.96,0003.46
2023-10-22 21:32:00,SystemResetWarning,0824.0,5.01,000.00,028.2,025.9,000.0,036.7,029.9,16.9,0000.0,0005.24,0018.05,0003.44
2023-10-22 21:33:00,SystemResetWarning,0824.0,5.00,000.00,028.2,026.3,000.0,036.7,030.0,16.9,0000.0,0005.16,0016.70,0003.41
2023-10-22 21:34:00,SystemResetWarning,0824.0,4.99,000.00,028.3,026.6,000.0,036.7,030.0,16.9,0000.0,0005.07,0016.56,0003.40
2023-10-22 21:35:00,SystemResetWarning,0824.0,5.00,000.00,028.3,026.9,000.0,036.7,030.1,16.7,0000.0,0004.96,0016.45,0003.39
2023-10-22 21:36:00,SystemResetWarning,0823.9,5.00,000.00,028.4,027.1,000.0,036.7,030.2,16.6,0000.0,0004.97,0017.18,0003.39
2023-10-22 21:37:00,SystemResetWarning,0824.0,5.00,000.00,028.4,027.3,000.0,036.8,030.2,16.5,0000.0,0004.97,0017.24,0003.39
2023-10-22 21:38:00,SystemResetWarning,0823.9,5.01,000.00,028.5,027.4,000.0,036.8,030.3,16.4,0000.0,0004.92,0016.94,0003.39
2023-10-22 21:39:00,SystemResetWarning,0824.0,5.00,000.00,028.5,027.6,000.0,036.8,030.4,16.3,0000.0,0004.87,0017.37,0003.38
2023-10-22 21:40:00,SystemResetWarning,0824.0,4.99,000.00,028.6,027.2,000.0,036.8,030.4,16.2,0000.0,0004.88,0017.62,0003.39
2023-10-22 21:41:00,SystemResetWarning,0823.9,4.99,000.00,028.5,025.2,000.0,036.8,030.2,16.2,0000.0,0004.89,0017.82,0003.39
2023-10-22 21:42:00,SystemResetWarning,0823.9,5.01,000.00,028.4,024.2,000.0,036.7,030.0,16.4,0000.0,0004.92,0018.25,0003.41
2023-10-22 21:43:00,SystemResetWarning,0823.9,5.00,000.00,028.3,024.4,000.0,036.7,029.9,16.6,0000.0,0004.91,0018.21,0003.42
2023-10-22 21:44:00,SystemResetWarning,0823.9,5.00,000.00,028.3,024.8,000.0,036.7,029.8,16.6,0000.0,0004.94,0019.24,0003.44
2023-10-22 21:45:00,SystemResetWarning,0823.9,5.00,000.00,028.2,025.2,000.0,036.7,029.8,16.6,0000.0,0004.99,0019.32,0003.44
2023-10-22 21:46:00,SystemResetWarning,0823.8,5.00,000.00,028.2,025.6,000.0,036.7,029.8,16.5,0000.0,0005.05,0018.52,0003.45
2023-10-22 21:47:00,SystemResetWarning,0823.8,4.99,000.00,028.2,026.1,000.0,036.7,029.9,16.4,0000.0,0005.01,0017.35,0003.48
2023-10-22 21:48:00,SystemResetWarning,0823.8,4.99,000.00,028.3,026.4,000.0,036.7,030.0,16.3,0000.0,0005.01,0017.02,0003.49
2023-10-22 21:49:00,SystemResetWarning,0823.9,5.00,000.00,028.3,026.7,000.0,036.7,030.1,16.2,0000.0,0005.06,0017.49,0003.51
2023-10-22 21:50:00,SystemResetWarning,0823.9,5.00,000.00,028.4,027.0,000.0,036.8,030.2,16.2,0000.0,0005.06,0017.67,0003.53
2023-10-22 21:51:00,SystemResetWarning,0823.9,5.00,000.00,028.4,027.2,000.0,036.8,030.2,15.9,0000.0,0005.05,0017.27,0003.54
2023-10-22 21:52:00,SystemResetWarning,0823.9,5.01,000.00,028.5,027.4,000.0,036.8,030.3,15.7,0000.0,0005.09,0017.01,0003.55
2023-10-22 21:53:00,SystemResetWarning,0823.9,5.00,000.00,028.5,027.5,000.0,036.8,030.3,15.6,0000.0,0005.10,0017.47,0003.55
2023-10-22 21:54:00,SystemResetWarning,0824.0,5.00,000.00,028.6,027.5,000.0,036.8,030.4,15.7,0000.0,0005.14,0017.26,0003.57
2023-10-22 21:55:00,SystemResetWarning,0823.9,4.99,000.00,028.6,026.1,000.0,036.8,030.3,15.8,0000.0,0005.16,0016.31,0003.57
2023-10-22 21:56:00,SystemResetWarning,0823.9,5.00,000.00,028.4,024.5,000.0,036.8,030.0,15.9,0000.0,0005.16,0016.38,0003.58
2023-10-22 21:57:00,SystemResetWarning,0823.9,5.00,000.00,028.4,024.3,000.0,036.7,029.9,15.9,0000.0,0005.14,0016.42,0003.58
2023-10-22 21:58:00,SystemResetWarning,0823.8,5.01,000.00,028.3,024.6,000.0,036.7,029.7,16.0,0000.0,0005.21,0016.99,0003.59
2023-10-22 21:59:00,SystemResetWarning,0823.8,5.01,000.00,028.2,025.1,000.0,036.7,029.7,16.0,0000.0,0005.24,0016.84,0003.58
